Time,TemperatureF,DewpointF,PressureIn,WindDirection,WindDirectionDegrees,WindSpeedMPH,WindSpeedGustMPH,Humidity,HourlyPrecipIn,Conditions,Clouds,dailyrainin,SoftwareType,DateUTC
2017-12-16 00:03:00,25.2,-0.5,30.09,SE,131,0.0,0.0,32,0.00,,---,0.00,VWS V15.00,2017-12-16 07:03:00,
2017-12-16 00:04:00,25.2,-0.5,30.09,SE,131,0.0,0.0,32,0.00,,---,0.00,VWS V15.00,2017-12-16 07:04:00,
2017-12-16 00:08:00,25.2,-0.5,30.09,SE,131,0.0,0.0,32,0.00,,---,0.00,VWS V15.00,2017-12-16 07:08:00,
2017-12-16 00:12:00,25.1,-0.6,30.09,SE,131,0.0,0.0,32,0.00,,---,0.00,VWS V15.00,2017-12-16 07:12:00,
2017-12-16 00:18:00,25.1,-0.6,30.09,SE,131,0.0,0.0,32,0.00,,---,0.00,VWS V15.00,2017-12-16 07:18:00,
2017-12-16 00:22:00,25.1,0.1,30.09,SE,131,0.0,0.0,33,0.00,,---,0.00,VWS V15.00,2017-12-16 07:22:00,
2017-12-16 00:27:00,25.0,-0.7,30.08,SE,131,0.0,0.0,32,0.00,,---,0.00,VWS V15.00,2017-12-16 07:27:00,
2017-12-16 00:32:00,25.0,-0.7,30.08,SE,131,0.0,0.0,32,0.00,,---,0.00,VWS V15.00,2017-12-16 07:32:00,
2017-12-16 00:36:00,25.2,-0.5,30.08,SE,131,0.0,0.0,32,0.00,,---,0.00,VWS V15.00,2017-12-16 07:36:00,
2017-12-16 00:41:00,25.6,0.5,30.08,SE,131,0.0,0.0,33,0.00,,---,0.00,VWS V15.00,2017-12-16 07:41:00,
2017-12-16 00:45:00,25.7,0.6,30.08,SE,131,0.0,0.0,33,0.00,,---,0.00,VWS V15.00,2017-12-16 07:45:00,
2017-12-16 00:46:00,25.7,0.6,30.08,SE,131,0.0,0.0,33,0.00,,---,0.00,VWS V15.00,2017-12-16 07:46:00,
2017-12-16 00:50:00,25.7,-0.1,30.07,SE,131,0.0,0.0,32,0.00,,---,0.00,VWS V15.00,2017-12-16 07:50:00,
2017-12-16 00:55:00,25.5,-0.2,30.07,SE,131,0.0,0.0,32,0.00,,---,0.00,VWS V15.00,2017-12-16 07:55:00,
2017-12-16 00:59:00,25.4,0.3,30.07,SE,131,0.0,0.0,33,0.00,,---,0.00,VWS V15.00,2017-12-16 07:59:00,
2017-12-16 01:04:00,25.2,0.2,30.07,SE,131,0.0,0.0,33,0.00,,---,0.00,VWS V15.00,2017-12-16 08:04:00,
2017-12-16 01:06:00,25.1,0.1,30.07,SE,131,0.0,0.0,33,0.00,,---,0.00,VWS V15.00,2017-12-16 08:06:00,
2017-12-16 01:11:00,24.8,-0.2,30.07,SE,131,0.0,0.0,33,0.00,,---,0.00,VWS V15.00,2017-12-16 08:11:00,
2017-12-16 01:14:00,24.7,-0.3,30.07,SE,131,0.0,0.0,33,0.00,,---,0.00,VWS V15.00,2017-12-16 08:14:00,
2017-12-16 01:19:00,24.5,0.2,30.07,SE,131,0.0,0.0,34,0.00,,---,0.00,VWS V15.00,2017-12-16 08:19:00,
2017-12-16 01:25:00,24.3,0.0,30.06,SE,131,0.0,0.0,34,0.00,,---,0.00,VWS V15.00,2017-12-16 08:25:00,
2017-12-16 01:30:00,24.1,0.4,30.06,SE,131,0.0,0.0,35,0.00,,---,0.00,VWS V15.00,2017-12-16 08:30:00,
2017-12-16 01:35:00,23.9,-0.4,30.06,SE,131,0.0,0.0,34,0.00,,---,0.00,VWS V15.00,2017-12-16 08:35:00,
2017-12-16 01:40:00,23.8,-0.5,30.06,SE,131,0.0,0.0,34,0.00,,---,0.00,VWS V15.00,2017-12-16 08:40:00,
2017-12-16 01:45:00,23.6,-0.6,30.05,SE,131,0.0,0.0,34,0.00,,---,0.00,VWS V15.00,2017-12-16 08:45:00,
2017-12-16 01:50:00,23.7,-0.6,30.06,SE,131,0.0,0.0,34,0.00,,---,0.00,VWS V15.00,2017-12-16 08:50:00,
2017-12-16 01:51:00,23.8,-0.5,30.05,SE,131,0.0,0.0,34,0.00,,---,0.00,VWS V15.00,2017-12-16 08:51:00,
2017-12-16 01:57:00,23.8,-0.5,30.05,SE,131,0.0,0.0,34,0.00,,---,0.00,VWS V15.00,2017-12-16 08:57:00,
2017-12-16 02:00:00,23.8,-0.5,30.05,SE,131,0.0,0.0,34,0.00,,---,0.00,VWS V15.00,2017-12-16 09:00:00,
2017-12-16 02:05:00,23.7,-0.6,30.05,SE,131,0.0,0.0,34,0.00,,---,0.00,VWS V15.00,2017-12-16 09:05:00,
2017-12-16 02:10:00,23.5,-0.7,30.05,SE,131,0.0,0.0,34,0.00,,---,0.00,VWS V15.00,2017-12-16 09:10:00,
2017-12-16 02:15:00,23.5,-0.7,30.04,SE,131,0.0,0.0,34,0.00,,---,0.00,VWS V15.00,2017-12-16 09:15:00,
2017-12-16 02:20:00,23.4,-0.2,30.05,SE,131,0.0,0.0,35,0.00,,---,0.00,VWS V15.00,2017-12-16 09:20:00,
2017-12-16 02:21:00,23.4,-0.2,30.05,SE,131,0.0,0.0,35,0.00,,---,0.00,VWS V15.00,2017-12-16 09:21:00,